Sedalia, MO

6:46 PM CDT on July 27, 2017 (GMT -0500)
Sedalia Memorial

Weather History for KDMO - February, 2013

Change the Weather History Date:

Sunday, February 24, 2013

  Actual Average Record
Temperature  
Mean Temperature 30 °F 39 °F  
Max Temperature 45 °F 49 °F 75 °F (1956)
Min Temperature 15 °F 29 °F 4 °F (1989)
Degree Days  
Heating Degree Days 35 26  
Month to date heating degree days 709 703  
Since 1 July heating degree days 3309 3518  
Cooling Degree Days 0 0  
Month to date cooling degree days 0 0  
Year to date cooling degree days 1 0  
Moisture  
Dew Point 20 °F    
Average Humidity 69    
Maximum Humidity 92    
Minimum Humidity 45    
Precipitation  
Precipitation 0.00 in 0.07 in 1.49 in (2001)
Month to date precipitation 1.65 1.68  
Year to date precipitation 4.35 3.35  
Sea Level Pressure  
Sea Level Pressure 30.04 in    
Wind  
Wind Speed 6 mph (ESE)    
Max Wind Speed 13 mph    
Max Gust Speed 18 mph    
Visibility 10 miles    
Events      
T = Trace of Precipitation, MM = Missing Value Source: NWS Daily Summary

Daily Weather History Graph

Daily Weather History Graph

Search for Another Location

Airport or City:

Trip Planner

Search our weather history database for the weather conditions in past years. The results will help you decide how hot, cold, wet, or windy it might be!

Date:

Astronomy

Feb. 24, 2013 Rise Set
Actual Time 6:51 AM CST 6:00 PM CST
Civil Twilight 6:24 AM CST 6:27 PM CST
Nautical Twilight 5:53 AM CST 6:58 PM CST
Astronomical Twilight 5:23 AM CST 7:29 PM CST
Moon 5:12 PM CST (2/24) 5:48 AM CST (2/24)
Length of Visible Light 12h 02m
Length of Day
11h 09m
Waxing Gibbous, 99% of the Moon is Illuminated
Feb 24
Waxing Gibbous
Feb 25
Full
Mar 4
Last Quarter
Mar 11
New
Mar 19
First Quarter

Hourly Weather History & Observations

Time (CST) Temp. Windchill Dew Point Humidity Pressure Visibility Wind Dir Wind Speed Gust Speed Precip Events Conditions
12:53 AM 21.9 °F 15.7 °F 14.0 °F 72% 30.05 in 10.0 mi South 4.6 mph - N/A   Clear
1:53 AM 19.0 °F 12.3 °F 14.0 °F 81% 30.05 in 10.0 mi South 4.6 mph - N/A   Clear
2:53 AM 19.9 °F 12.1 °F 15.1 °F 81% 30.04 in 10.0 mi South 5.8 mph - N/A   Clear
3:53 AM 19.9 °F 14.9 °F 15.1 °F 81% 30.04 in 10.0 mi South 3.5 mph - N/A   Clear
4:53 AM 18.0 °F 8.7 °F 15.1 °F 88% 30.05 in 10.0 mi South 6.9 mph - N/A   Clear
5:53 AM 16.0 °F 10.4 °F 12.9 °F 88% 30.06 in 9.0 mi ESE 3.5 mph - N/A   Clear
6:53 AM 16.0 °F 8.8 °F 14.0 °F 92% 30.07 in 8.0 mi SE 4.6 mph - N/A   Clear
7:53 AM 17.1 °F 10.0 °F 15.1 °F 92% 30.08 in 7.0 mi East 4.6 mph - N/A   Clear
8:53 AM 21.0 °F 14.6 °F 16.0 °F 81% 30.09 in 10.0 mi ESE 4.6 mph - N/A   Clear
9:53 AM 28.0 °F 22.8 °F 19.9 °F 72% 30.10 in 10.0 mi ESE 4.6 mph - N/A   Clear
10:53 AM 35.1 °F 31.0 °F 21.0 °F 57% 30.09 in 10.0 mi East 4.6 mph - N/A   Clear
11:53 AM 39.9 °F 35.1 °F 23.0 °F 51% 30.07 in 10.0 mi East 6.9 mph - N/A   Clear
12:53 PM 43.0 °F 38.8 °F 23.0 °F 45% 30.05 in 10.0 mi East 6.9 mph - N/A   Clear
1:53 PM 45.0 °F 40.6 °F 24.1 °F 44% 30.02 in 10.0 mi East 8.1 mph - N/A   Clear
2:53 PM 44.1 °F 39.0 °F 24.1 °F 45% 30.00 in 10.0 mi East 9.2 mph - N/A   Clear
3:53 PM 45.0 °F 40.1 °F 24.1 °F 44% 29.98 in 10.0 mi East 9.2 mph - N/A   Clear
4:53 PM 45.0 °F 41.2 °F 25.0 °F 46% 29.98 in 10.0 mi East 6.9 mph - N/A   Clear
5:53 PM 43.0 °F 38.2 °F 25.0 °F 49% 29.99 in 10.0 mi East 8.1 mph - N/A   Clear
7:53 PM 39.9 °F 35.1 °F 24.1 °F 53% 29.99 in 10.0 mi East 6.9 mph - N/A   Clear
8:53 PM 39.0 °F 34.0 °F 24.1 °F 55% 29.99 in 10.0 mi ENE 6.9 mph - N/A   Clear
9:53 PM 36.0 °F 32.1 °F 23.0 °F 59% 30.01 in 10.0 mi NE 4.6 mph - N/A   Clear
10:53 PM 35.1 °F 29.3 °F 23.0 °F 61% 30.01 in 10.0 mi ENE 6.9 mph - N/A   Clear
11:53 PM 36.0 °F 32.1 °F 21.9 °F 57% 30.04 in 10.0 mi East 4.6 mph - N/A   Mostly Cloudy